Location: Unspecified
(52.0178°N, 0.0000°E)
Time: 07:21:50
(UTC+00:00)

O/OREOS (USA 219) - Pass Details

Date: 26 July 2019
Orbit: 621 x 646 km, 72.0° (Epoch: 22 May)

Event Time Altitude Azimuth Distance (km) Brightness Sun altitude
Exits shadow 01:58:53 - 148° (SSE) 2,587 ? -14.4°
Reaches altitude 10° 02:01:02 10° 130° (SE) 2,030 ? -14.2°
Maximum altitude 02:03:22 14° 99° (E) 1,774 ? -14.1°
Drops below altitude 10° 02:05:43 10° 68° (ENE) 2,031 ? -13.9°
Sets 02:08:58 0° 43° (NE) 2,940 ? -13.6°
